Asahikawa Airport, Japan

2:23 AM JST on March 29, 2017 (GMT +0900)
Asahikawa

Weather History for RJEC - January, 2013

Change the Weather History Date:

Thursday, January 3, 2013

  Actual Average Record
Temperature  
Mean Temperature 16 °F -  
Max Temperature 19 °F 21 °F 39 °F (2005)
Min Temperature 14 °F 8 °F -2 °F (2003)
Degree Days  
Heating Degree Days 48    
Moisture  
Dew Point 15 °F    
Average Humidity 95    
Maximum Humidity 100    
Minimum Humidity 86    
Precipitation  
Precipitation 0.00 in - - ()
Sea Level Pressure  
Sea Level Pressure 29.75 in    
Wind  
Wind Speed 10 mph ()    
Max Wind Speed 28 mph    
Max Gust Speed 39 mph    
Visibility 2.7 miles    
Events Snow    
Averages and records for this station are not official NWS values.
T = Trace of Precipitation, MM = Missing Value Source: Averaged Metar Reports

Daily Weather History Graph

Daily Weather History Graph

Search for Another Location

Airport or City:

Trip Planner

Search our weather history database for the weather conditions in past years. The results will help you decide how hot, cold, wet, or windy it might be!

Date:

Astronomy

Jan. 03, 2013 Rise Set
Actual Time 7:03 AM JST 4:05 PM JST
Civil Twilight 6:31 AM JST 4:38 PM JST
Nautical Twilight 5:55 AM JST 5:14 PM JST
Astronomical Twilight 5:20 AM JST 5:49 PM JST
Moon 10:12 PM JST (1/3) 9:45 AM JST (1/3)
Length of Visible Light 10h 06m
Length of Day
9h 01m
Waning Gibbous, 71% of the Moon is Illuminated
Jan 3
Waning Gibbous
Jan 5
Last Quarter
Jan 12
New
Jan 19
First Quarter
Jan 27
Full

Hourly Weather History & Observations

Time (JST) Temp. Windchill Dew Point Humidity Pressure Visibility Wind Dir Wind Speed Gust Speed Precip Events Conditions
7:00 AM 17.6 °F -1.3 °F 15.8 °F 93% 29.62 in 0.1 mi West 27.6 mph 39.1 mph N/A Snow Snow Showers
7:34 AM 17.6 °F 0.1 °F 15.8 °F 93% 29.65 in 0.5 mi WNW 23.0 mph - N/A Snow Snow Showers
7:39 AM 17.6 °F -0.3 °F 15.8 °F 93% 29.65 in 0.1 mi WNW 24.2 mph - N/A Snow Snow Showers
8:00 AM 17.6 °F 0.9 °F 15.8 °F 93% 29.68 in 1.2 mi WNW 20.7 mph - N/A Snow Light Snow Showers
8:03 AM 17.6 °F 1.3 °F 15.8 °F 93% 29.68 in - WNW 19.6 mph - N/A Snow Light Snow Showers
8:35 AM 17.6 °F 2.2 °F 15.8 °F 93% 29.68 in 3.1 mi WNW 17.3 mph - N/A Snow Light Snow Showers
9:00 AM 17.6 °F 3.7 °F 15.8 °F 93% 29.71 in - WNW 13.8 mph - N/A Snow Light Snow Showers
9:06 AM 17.6 °F 5.0 °F 15.8 °F 93% 29.71 in - NW 11.5 mph - N/A Snow Light Snow Showers
9:16 AM 17.6 °F 5.0 °F 15.8 °F 93% 29.71 in - NW 11.5 mph - N/A Snow Light Snow Showers
10:00 AM 17.6 °F 7.3 °F 17.6 °F 100% 29.74 in 2.2 mi NW 8.1 mph - N/A Snow Light Snow Showers
10:11 AM 17.6 °F 10.7 °F 17.6 °F 100% 29.74 in 3.1 mi WNW 4.6 mph - N/A Snow Light Snow Showers
11:00 AM 17.6 °F 12.3 °F 17.6 °F 100% 29.74 in 6.2 mi WSW 3.5 mph - N/A Snow Light Snow Showers
11:21 AM 17.6 °F - 17.6 °F 100% 29.74 in - Variable 1.2 mph - N/A Snow Light Snow Showers
11:24 AM 17.6 °F - 17.6 °F 100% 29.74 in 1.4 mi Variable 1.2 mph - N/A Snow Light Snow Showers
11:30 AM 19.4 °F - 19.4 °F 100% 29.74 in 1.5 mi Calm Calm - N/A Snow Light Snow Showers
11:36 AM 17.6 °F - 17.6 °F 100% 29.74 in - Calm Calm - N/A Snow Light Snow Showers
11:41 AM 19.4 °F - 19.4 °F 100% 29.74 in 3.1 mi Calm Calm - N/A Snow Light Snow Showers
12:00 PM - - - N/A% 29.74 in - Variable 1.2 mph - N/A   Unknown
12:02 PM - - - N/A% 29.74 in 0.9 mi Variable 1.2 mph - N/A   Unknown
12:10 PM - - - N/A% 29.74 in 0.9 mi Calm Calm - N/A   Unknown
12:16 PM - - - N/A% 29.74 in 1.0 mi Calm Calm - N/A   Unknown
12:18 PM - - - N/A% 29.74 in - Calm Calm - N/A   Unknown
12:23 PM - - - N/A% 29.74 in 3.1 mi Calm Calm - N/A   Unknown
1:00 PM - - - N/A% 29.74 in - WNW 10.4 mph - N/A   Unknown
1:27 PM 17.6 °F 9.3 °F 17.6 °F 100% 29.74 in 3.1 mi WNW 5.8 mph - N/A Snow Light Snow Showers
2:00 PM - - - N/A% 29.77 in 6.2 mi West 6.9 mph - N/A   Unknown
3:00 PM 15.8 °F 4.2 °F 12.2 °F 86% 29.77 in 6.2 mi West 9.2 mph - N/A Snow Light Snow Showers
4:00 PM 15.8 °F 8.6 °F 14.0 °F 93% 29.80 in 6.2 mi NNW 4.6 mph - N/A Snow Light Snow Showers
4:22 PM 15.8 °F 5.1 °F 12.2 °F 86% 29.80 in - WNW 8.1 mph - N/A Snow Light Snow Showers
4:26 PM 15.8 °F 6.1 °F 12.2 °F 86% 29.80 in - WNW 6.9 mph - N/A Snow Light Snow Showers
4:30 PM 15.8 °F 6.1 °F 12.2 °F 86% 29.80 in 1.4 mi West 6.9 mph - N/A Snow Light Snow Showers
4:45 PM 15.8 °F 7.2 °F 12.2 °F 86% 29.80 in - West 5.8 mph - N/A Snow Light Snow Showers
5:00 PM 15.8 °F 10.2 °F 14.0 °F 93% 29.80 in 4.3 mi WSW 3.5 mph - N/A Snow Light Snow Showers
6:00 PM 15.8 °F 10.2 °F 14.0 °F 93% 29.80 in 3.7 mi NNW 3.5 mph - N/A Snow Light Snow Showers
7:00 PM 15.8 °F - 14.0 °F 93% 29.80 in 6.2 mi Variable 2.3 mph - N/A Snow Light Snow Showers
7:32 PM 14.0 °F - 14.0 °F 100% 29.80 in - Calm Calm - N/A Snow Light Snow Showers
7:40 PM 14.0 °F - 14.0 °F 100% 29.80 in - Calm Calm - N/A Snow Light Snow Showers
8:00 PM 14.0 °F - 14.0 °F 100% 29.80 in 1.6 mi WNW 1.2 mph - N/A Snow Light Snow Showers
8:09 PM 15.8 °F - 14.0 °F 93% 29.80 in 1.4 mi West 1.2 mph - N/A Snow Light Snow Showers